Location: Saint Louis
(38.6272°N, 90.1978°W)
Time: 19:59:09
(UTC-06:00)

Hubble Space Telescope - Visible Passes

Search period start: 23 February 2018 00:00
Search period end: 05 March 2018 00:00
Orbit: 537 x 541 km, 28.5° (Epoch: 23 February)

Date Brightness Start Highest point End Pass type
(mag) Time Alt. Az. Time Alt. Az. Time Alt. Az.
23 Feb 3.5 04:12:56 13° SE 04:12:56 13° SE 04:13:42 10° SE visible
23 Feb 2.7 05:48:39 10° SW 05:51:40 20° S 05:54:42 10° SE visible
24 Feb 3.7 04:03:15 11° SE 04:03:15 11° SE 04:03:30 10° SE visible
24 Feb 2.7 05:38:36 11° SW 05:41:18 19° S 05:44:16 10° SE visible
25 Feb 2.7 05:28:54 13° SW 05:30:55 18° S 05:33:47 10° SE visible
26 Feb 2.7 05:19:12 15° SSW 05:20:33 17° S 05:23:14 10° SSE visible
27 Feb 2.8 05:09:32 15° SSW 05:10:10 15° SSW 05:12:36 10° SSE visible
28 Feb 3.0 04:59:54 13° SSW 04:59:54 13° SSW 05:01:50 10° SSE visible
01 Mar 3.2 04:50:19 11° S 04:50:19 11° S 04:50:51 10° S visible
